Regional Weather Roundup
Issued by NWS Newport/Morehead, NC

Home | Current Version | Previous Version | Text Only | Print | Product List | Glossary On
Versions: 1 2 3 4 5 6 7 8 9 10 11 12 13 14 15 16 17 18 19 20 21 22 23 24 25 26 27 28 29 30 31 32 33 34 35 36 37 38 39 40 41 42 43 44 45 46 47 48 49 50
434
ASUS42 KMHX 291325
RWRMHX
WEATHER ROUNDUP FOR EASTERN NORTH CAROLINA
NATIONAL WEATHER SERVICE NEWPORT/MOREHEAD CITY NC
900 AM EDT MON MAY 29 2017

NOTE: "FAIR" INDICATES FEW OR NO CLOUDS BELOW 12,000 FEET
WITH NO SIGNIFICANT WEATHER AND/OR OBSTRUCTIONS TO VISIBILITY

NCZ015>017-031-032-045>047-102-103-291400-
NORTH COAST

CITY           SKY/WX    TMP DP  RH WIND       PRES   REMARKS
EDENTON        SUNNY     76  69  77 CALM      29.90R
ELIZABETH CITY MOSUNNY   74  71  91 W6        29.88S
KITTY HAWK     PTSUNNY   72  72 100 CALM      29.88R
MANTEO         MOSUNNY   76  69  80 NW7       29.89R

$$

NCZ045>047-081-094-103-104-291400-
CENTRAL COAST

CITY           SKY/WX    TMP DP  RH WIND       PRES   REMARKS
FRISCO         SUNNY     80  72  76 W10       29.90R

$$

NCZ095-097-098-100-101-291400-
SOUTHERN COAST

CITY           SKY/WX    TMP DP  RH WIND       PRES   REMARKS
BEAUFORT       SUNNY     79  70  74 NW6       29.92R
CEDAR ISLAND   NOT AVBL
JACKSONVILLE   SUNNY     77  71  82 W6        29.92S
PINEY ISLAND   SUNNY    N/A N/A N/A W12       29.91R
WILMINGTON     SUNNY     77  70  79 W5        29.94R


$$

NCZ011>013-027>030-043-044-078>080-089-090>093-098-291400-
COASTAL PLAIN

CITY           SKY/WX    TMP DP  RH WIND       PRES   REMARKS
AHOSKIE        NOT AVBL
CLINTON        SUNNY     78  68  71 NW3       29.95R
ELIZABETHTOWN  SUNNY     77  69  77 W3        29.95R
GOLDSBORO      SUNNY     77  70  77 W8        29.92R
GREENVILLE     SUNNY     79  66  65 W5        29.93S
HAVELOCK       SUNNY     81  66  61 NW8       29.93R
KENANSVILLE    SUNNY     79  66  65 W7        29.94R
KINSTON        SUNNY     79  66  65 W3        29.94
NEW BERN       SUNNY     79  68  69 W3        29.93R
RICHLANDS      SUNNY     78  70  76 VRB3      29.94R
ROCKY MOUNT    SUNNY     76  66  71 W6        29.92R
WASHINGTON     SUNNY     78  67  68 W5        29.91S
WHITEVILLE     SUNNY     76  70  82 CALM      29.94S

$$

AMZ130-135-150-152-154-156-158-170-250-252-270-ANZ085-086-088-633-658-670-291400-
MARINE OBSERVATIONS

STATION/POSITION TIME  TEMP    WIND        PRES    WAVE   SWELL
                       AIR SEA DIR/SP/G            HT/PER HT/PER
                 (UTC) (F)     (DEG/KT/KT) (MB)    (FT/S) (FT/S)
CHESAPEAKE LIGHT NOT AVBL
64 E VA BEACH    1250   63 64  290/  4/  6 1011.9    4/ 6   3/ 6
DUCK             1300   73 68  290/  6/  8 1011.4
2 E DUCK         1300      68                N/A     2/ 7
OREGON INLET     1300   76 69  300/  9/ 13 1011.9
13E OREGON INLT  1248      67                N/A     4/ 6   3/ 6
HATTERAS CG      1300   76 74  270/ 12/ 14 1012.5
DIAMOND BUOY     1250   75 76  270/ 14/ 16 1012.5    5/ 6   2/10
CAPE LOOKOUT     1300   76     280/  7/  9 1012.9
BEAUFORT LAB     1300   78 74  320/  4/  6 1012.4
30 SE NEW RVR IN 1308   75 76  300/  8/ 10 1013.7
30 SE NEW RVR IN 1313      76                N/A     4/ 5
27 SE WRIGHTSVLE 1308   75 77  290/ 10/ 12 1013.1
5 SE WRIGHTSVLE  1308   76 75  290/  6/  8 1013.5
225 S CAPE HAT   1250   77 76  230/ 14/ 16 1015.6    3/ 5   2/11
41 SE CHARLESTON 1310   77 76  290/  8/ 10 1014.5

$$




USA.gov is the U.S. government's official web portal to all federal, state and local government web resources and services.